| time (UTC) | temp C | wind direction | speed KPH | gust KPH | rain 1hr cm | rain 24hr cm | rain mn cm | humidity % | barometer mb |
| 20260505171758 | 13 | 128 | 0.0 | 0.0 | 0.00 | 0.30 | 0.30 | 78 | 1009.0 |
| 20260505171255 | 13 | 118 | 0.0 | 1.6 | 0.00 | 0.30 | 0.30 | 78 | 1009.0 |
| 20260505170752 | 13 | 134 | 0.0 | 0.0 | 0.00 | 0.30 | 0.30 | 79 | 1008.9 |
| 20260505170249 | 13 | 159 | 0.0 | 1.6 | 0.00 | 0.30 | 0.30 | 78 | 1009.0 |
| 20260505165744 | 13 | 0 | 4.8 | 4.8 | 0.00 | 0.30 | 0.30 | 77 | 1008.9 |
| 20260505165240 | 13 | 34 | 3.2 | 3.2 | 0.00 | 0.30 | 0.30 | 77 | 1008.8 |
| 20260505164736 | 13 | 130 | 0.0 | 1.6 | 0.00 | 0.30 | 0.30 | 77 | 1008.6 |
| 20260505164233 | 14 | 65 | 1.6 | 4.8 | 0.00 | 0.30 | 0.30 | 76 | 1008.6 |
| 20260505163731 | 14 | 10 | 1.6 | 4.8 | 0.00 | 0.30 | 0.30 | 76 | 1008.6 |
| 20260505163230 | 14 | 114 | 3.2 | 3.2 | 0.00 | 0.30 | 0.30 | 77 | 1008.4 |
| 20260505162726 | 14 | 72 | 1.6 | 4.8 | 0.00 | 0.30 | 0.30 | 76 | 1008.6 |
| 20260505162223 | 13 | 96 | 0.0 | 1.6 | 0.00 | 0.30 | 0.30 | 78 | 1008.5 |
| 20260505161720 | 13 | 5 | 6.4 | 9.7 | 0.00 | 0.30 | 0.30 | 77 | 1008.8 |
| 20260505161218 | 14 | 150 | 1.6 | 3.2 | 0.00 | 0.30 | 0.30 | 77 | 1008.8 |
| 20260505160715 | 14 | 178 | 1.6 | 3.2 | 0.00 | 0.30 | 0.30 | 77 | 1009.0 |
| 20260505160213 | 14 | 72 | 1.6 | 1.6 | 0.00 | 0.30 | 0.30 | 77 | 1009.0 |
| 20260505153152 | 15 | 170 | 3.2 | 3.2 | 0.00 | 0.30 | 0.30 | 78 | 1008.1 |
| 20260505152649 | 15 | 163 | 1.6 | 1.6 | 0.00 | 0.30 | 0.30 | 78 | 1007.9 |
| 20260505152144 | 15 | 93 | 1.6 | 1.6 | 0.00 | 0.30 | 0.30 | 78 | 1007.9 |
| 20260505151640 | 15 | 124 | 1.6 | 1.6 | 0.00 | 0.30 | 0.30 | 78 | 1007.7 |
| 20260505151137 | 15 | 151 | 3.2 | 3.2 | 0.00 | 0.30 | 0.30 | 77 | 1007.5 |
| 20260505150633 | 15 | 116 | 3.2 | 4.8 | 0.00 | 0.30 | 0.30 | 76 | 1007.5 |
| 20260505150131 | 15 | 159 | 0.0 | 0.0 | 0.00 | 0.30 | 0.30 | 79 | 1007.4 |
| 20260505140559 | 14 | 153 | 0.0 | 0.0 | 0.00 | 0.30 | 0.30 | 82 | 1008.2 |
| 20260505125012 | 14 | 168 | 1.6 | 3.2 | 0.00 | 0.30 | 0.30 | 83 | 1007.6 |
| 20260505124509 | 14 | 135 | 0.0 | 0.0 | 0.00 | 0.30 | 0.30 | 85 | 1007.4 |
| 20260505124006 | 14 | 184 | 0.0 | 0.0 | 0.00 | 0.30 | 0.30 | 87 | 1007.3 |
| 20260505123502 | 14 | 162 | 0.0 | 0.0 | 0.00 | 0.30 | 0.30 | 88 | 1007.3 |
| 20260505122958 | 14 | 143 | 0.0 | 0.0 | 0.00 | 0.30 | 0.30 | 88 | 1007.0 |
| 20260505122455 | 14 | 174 | 0.0 | 0.0 | 0.00 | 0.30 | 0.30 | 87 | 1007.0 |
| 20260505121952 | 14 | 96 | 1.6 | 1.6 | 0.00 | 0.30 | 0.30 | 87 | 1006.9 |
| 20260505121449 | 14 | 162 | 0.0 | 1.6 | 0.00 | 0.30 | 0.30 | 89 | 1006.7 |
| 20260505120945 | 15 | 88 | 3.2 | 4.8 | 0.00 | 0.30 | 0.30 | 88 | 1006.7 |
| 20260505120442 | 15 | 102 | 0.0 | 1.6 | 0.00 | 0.30 | 0.30 | 88 | 1006.9 |
| 20260505115941 | 15 | 156 | 0.0 | 0.0 | 0.00 | 0.30 | 0.30 | 88 | 1007.2 |
| 20260505115437 | 15 | 147 | 0.0 | 0.0 | 0.00 | 0.30 | 0.30 | 89 | 1006.9 |
| 20260505114936 | 15 | 106 | 1.6 | 3.2 | 0.00 | 0.30 | 0.30 | 90 | 1006.9 |
| 20260505114431 | 15 | 157 | 0.0 | 0.0 | 0.00 | 0.30 | 0.30 | 90 | 1006.6 |
| 20260505113928 | 15 | 166 | 0.0 | 0.0 | 0.00 | 0.30 | 0.30 | 93 | 1006.9 |
| 20260505113425 | 15 | 174 | 0.0 | 0.0 | 0.00 | 0.30 | 0.30 | 93 | 1006.9 |
| 20260505112920 | 15 | 177 | 0.0 | 0.0 | 0.00 | 0.30 | 0.30 | 93 | 1006.6 |
| 20260505112418 | 15 | 177 | 0.0 | 0.0 | 0.00 | 0.30 | 0.30 | 93 | 1006.4 |
| 20260505111914 | 15 | 129 | 1.6 | 1.6 | 0.18 | 0.30 | 0.30 | 93 | 1006.6 |
| 20260505111409 | 15 | 205 | 3.2 | 3.2 | 0.18 | 0.30 | 0.30 | 92 | 1005.9 |
| 20260505110905 | 15 | 108 | 0.0 | 0.0 | 0.00 | 0.28 | 0.28 | 93 | 1005.6 |
| 20260505110402 | 15 | 175 | 0.0 | 0.0 | 0.00 | 0.28 | 0.28 | 95 | 1006.7 |
| 20260505101833 | 15 | 179 | 0.0 | 0.0 | 0.18 | 0.28 | 0.28 | 93 | 1006.5 |
| 20260505101328 | 15 | 173 | 0.0 | 1.6 | 0.18 | 0.28 | 0.28 | 93 | 1006.4 |
| 20260505100824 | 15 | 181 | 0.0 | 1.6 | 0.00 | 0.25 | 0.25 | 94 | 1006.1 |
| 20260505100321 | 15 | 41 | 4.8 | 4.8 | 0.00 | 0.25 | 0.25 | 94 | 1006.3 |
| 20260505095816 | 15 | 177 | 0.0 | 0.0 | 0.00 | 0.25 | 0.25 | 93 | 1006.0 |
| 20260505095314 | 15 | 180 | 0.0 | 0.0 | 0.00 | 0.25 | 0.25 | 93 | 1005.6 |
| 20260505094810 | 15 | 177 | 0.0 | 0.0 | 0.13 | 0.25 | 0.25 | 92 | 1005.2 |
| 20260505094307 | 15 | 186 | 0.0 | 0.0 | 0.13 | 0.25 | 0.25 | 91 | 1005.4 |
| 20260505093802 | 15 | 202 | 1.6 | 3.2 | 0.00 | 0.23 | 0.23 | 90 | 1005.7 |
| 20260505093301 | 15 | 183 | 0.0 | 0.0 | 0.00 | 0.23 | 0.23 | 92 | 1005.3 |
| 20260505092757 | 15 | 175 | 0.0 | 0.0 | 0.00 | 0.23 | 0.23 | 91 | 1004.9 |
| 20260505092256 | 15 | 182 | 0.0 | 0.0 | 0.00 | 0.23 | 0.23 | 90 | 1005.1 |
| 20260505091752 | 15 | 188 | 0.0 | 0.0 | 0.00 | 0.23 | 0.23 | 89 | 1005.1 |
| 20260505091250 | 15 | 195 | 0.0 | 0.0 | 0.00 | 0.23 | 0.23 | 86 | 1004.7 |
| 20260505090748 | 16 | 181 | 0.0 | 1.6 | 0.00 | 0.23 | 0.23 | 87 | 1004.2 |
| 20260505090246 | 15 | 189 | 3.2 | 3.2 | 0.00 | 0.23 | 0.23 | 89 | 1003.7 |
| 20260505085743 | 15 | 205 | 3.2 | 4.8 | 0.00 | 0.23 | 0.23 | 91 | 1003.8 |
| 20260505085241 | 15 | 150 | 1.6 | 3.2 | 0.18 | 0.23 | 0.23 | 91 | 1003.8 |
| 20260505084738 | 16 | 239 | 8.0 | 20.9 | 0.30 | 0.23 | 0.23 | 92 | 1004.6 |
| 20260505084238 | 16 | 173 | 1.6 | 3.2 | 0.13 | 0.20 | 0.20 | 91 | 1005.1 |
| 20260505083734 | 16 | 207 | 1.6 | 4.8 | 0.18 | 0.18 | 0.18 | 93 | 1005.9 |
| 20260505083230 | 16 | 187 | 1.6 | 3.2 | 0.30 | 0.18 | 0.18 | 93 | 1006.4 |
| 20260505082726 | 16 | 182 | 0.0 | 0.0 | 0.30 | 0.15 | 0.15 | 93 | 1006.4 |
| 20260505082224 | 16 | 186 | 1.6 | 3.2 | 0.18 | 0.13 | 0.13 | 93 | 1006.5 |
| 20260505081719 | 16 | 196 | 4.8 | 11.3 | 0.13 | 0.10 | 0.10 | 92 | 1006.3 |
| 20260505081217 | 16 | 166 | 0.0 | 0.0 | 0.13 | 0.10 | 0.10 | 92 | 1006.2 |
| 20260505080714 | 16 | 203 | 0.0 | 0.0 | 0.18 | 0.08 | 0.08 | 91 | 1006.2 |
| 20260505080210 | 16 | 222 | 1.6 | 1.6 | 0.30 | 0.08 | 0.08 | 90 | 1006.2 |
| 20260505075706 | 16 | 185 | 3.2 | 3.2 | 0.30 | 0.05 | 0.05 | 88 | 1006.2 |
| 20260505075203 | 17 | 179 | 1.6 | 1.6 | 0.18 | 0.03 | 0.03 | 86 | 1006.1 |
| 20260505074700 | 17 | 203 | 1.6 | 1.6 | 0.00 | 0.00 | 0.00 | 83 | 1006.0 |
| 20260505074156 | 17 | 291 | 3.2 | 4.8 | 0.00 | 0.00 | 0.00 | 81 | 1006.3 |
| 20260505073655 | 17 | 166 | 0.0 | 0.0 | 0.00 | 0.00 | 0.00 | 79 | 1006.1 |
| 20260505073153 | 17 | 171 | 3.2 | 3.2 | 0.00 | 0.00 | 0.00 | 76 | 1006.3 |
| 20260505072648 | 17 | 100 | 0.0 | 1.6 | 0.00 | 0.00 | 0.00 | 77 | 1006.1 |
| 20260505072145 | 17 | 214 | 3.2 | 3.2 | 0.00 | 0.00 | 0.00 | 76 | 1006.0 |
| 20260505071640 | 18 | 182 | 0.0 | 0.0 | 0.00 | 0.00 | 0.00 | 75 | 1006.0 |
| 20260505071138 | 18 | 184 | 4.8 | 4.8 | 0.00 | 0.00 | 0.00 | 73 | 1006.2 |
| 20260505070635 | 18 | 198 | 3.2 | 3.2 | 0.00 | 0.00 | 0.00 | 72 | 1006.0 |
| 20260505070131 | 18 | 176 | 3.2 | 4.8 | 0.00 | 0.00 | 0.00 | 72 | 1005.9 |
| 20260505065627 | 18 | 195 | 0.0 | 0.0 | 0.00 | 0.00 | 0.00 | 72 | 1005.9 |
| 20260505065124 | 18 | 182 | 1.6 | 1.6 | 0.00 | 0.00 | 0.00 | 73 | 1005.6 |
| 20260505064621 | 18 | 188 | 1.6 | 3.2 | 0.00 | 0.00 | 0.00 | 72 | 1005.8 |
| 20260505064120 | 18 | 215 | 0.0 | 0.0 | 0.00 | 0.00 | 0.00 | 72 | 1006.1 |
| 20260505063617 | 18 | 172 | 0.0 | 0.0 | 0.00 | 0.00 | 0.00 | 72 | 1006.3 |
| 20260505063112 | 18 | 185 | 0.0 | 0.0 | 0.00 | 0.00 | 0.00 | 72 | 1006.4 |
| 20260505062609 | 18 | 168 | 0.0 | 0.0 | 0.00 | 0.00 | 0.00 | 72 | 1006.4 |
| 20260505062106 | 18 | 169 | 1.6 | 3.2 | 0.00 | 0.00 | 0.00 | 71 | 1006.2 |
| 20260505061603 | 18 | 188 | 1.6 | 1.6 | 0.00 | 0.00 | 0.00 | 72 | 1006.3 |
| 20260505061101 | 18 | 176 | 0.0 | 0.0 | 0.00 | 0.00 | 0.00 | 72 | 1006.4 |
| 20260505060559 | 18 | 200 | 1.6 | 1.6 | 0.00 | 0.00 | 0.00 | 71 | 1006.5 |
| 20260505060055 | 18 | 177 | 0.0 | 0.0 | 0.00 | 0.00 | 0.00 | 71 | 1006.3 |
| 20260505055550 | 18 | 194 | 0.0 | 0.0 | 0.00 | 0.00 | 0.00 | 71 | 1006.3 |
| 20260505055047 | 18 | 180 | 0.0 | 0.0 | 0.00 | 0.00 | 0.00 | 71 | 1006.4 |
| 20260505054545 | 18 | 182 | 0.0 | 1.6 | 0.00 | 0.00 | 0.00 | 70 | 1006.5 |
| 20260505054043 | 18 | 192 | 1.6 | 1.6 | 0.00 | 0.00 | 0.00 | 70 | 1006.4 |
| 20260505053539 | 18 | 124 | 0.0 | 1.6 | 0.00 | 0.00 | 0.00 | 70 | 1006.2 |
| 20260505053036 | 18 | 168 | 1.6 | 3.2 | 0.00 | 0.00 | 0.00 | 70 | 1006.4 |
| 20260505052533 | 18 | 175 | 0.0 | 0.0 | 0.00 | 0.00 | 0.00 | 70 | 1006.3 |
| 20260505052031 | 18 | 193 | 0.0 | 0.0 | 0.00 | 0.00 | 0.00 | 70 | 1006.4 |
| 20260505051527 | 18 | 179 | 1.6 | 1.6 | 0.00 | 0.00 | 0.00 | 70 | 1006.3 |
| 20260505051026 | 18 | 185 | 1.6 | 1.6 | 0.00 | 0.00 | 0.00 | 69 | 1006.3 |
| 20260505050524 | 18 | 161 | 0.0 | 1.6 | 0.00 | 0.00 | 0.00 | 70 | 1006.5 |
| 20260505041451 | 18 | 178 | 0.0 | 0.0 | 0.00 | 0.00 | 0.00 | 71 | 1007.0 |
| 20260505040948 | 18 | 184 | 0.0 | 0.0 | 0.00 | 0.00 | 0.00 | 72 | 1007.0 |
| 20260505040446 | 17 | 174 | 0.0 | 0.0 | 0.00 | 0.00 | 0.00 | 73 | 1007.2 |
| 20260505035943 | 17 | 185 | 0.0 | 0.0 | 0.00 | 0.00 | 0.00 | 73 | 1007.3 |
| 20260505035438 | 18 | 177 | 0.0 | 0.0 | 0.00 | 0.00 | 0.00 | 73 | 1007.2 |
| 20260505034936 | 18 | 176 | 0.0 | 0.0 | 0.00 | 0.00 | 0.00 | 72 | 1007.4 |
| 20260505034432 | 18 | 175 | 0.0 | 0.0 | 0.00 | 0.00 | 0.00 | 72 | 1007.4 |
| 20260505033929 | 18 | 175 | 0.0 | 0.0 | 0.00 | 0.00 | 0.00 | 71 | 1007.5 |
| 20260505033426 | 18 | 175 | 0.0 | 0.0 | 0.00 | 0.00 | 0.00 | 70 | 1007.5 |
| 20260505032924 | 18 | 175 | 0.0 | 0.0 | 0.00 | 0.00 | 0.00 | 70 | 1007.6 |
| 20260505032421 | 19 | 175 | 0.0 | 0.0 | 0.00 | 0.00 | 0.00 | 69 | 1007.4 |
| 20260505031918 | 19 | 174 | 0.0 | 0.0 | 0.00 | 0.00 | 0.00 | 68 | 1007.5 |
| 20260505031414 | 19 | 173 | 0.0 | 0.0 | 0.00 | 0.00 | 0.00 | 67 | 1007.7 |
| 20260505030912 | 20 | 198 | 0.0 | 0.0 | 0.00 | 0.00 | 0.00 | 67 | 1007.4 |
| 20260505030407 | 20 | 187 | 0.0 | 0.0 | 0.00 | 0.00 | 0.00 | 66 | 1007.4 |
| 20260505025903 | 20 | 176 | 0.0 | 0.0 | 0.00 | 0.00 | 0.00 | 66 | 1007.3 |
| 20260505025401 | 20 | 196 | 0.0 | 1.6 | 0.00 | 0.00 | 0.00 | 65 | 1007.4 |
| 20260505024859 | 20 | 175 | 0.0 | 0.0 | 0.00 | 0.00 | 0.00 | 65 | 1007.4 |
| 20260505024356 | 20 | 184 | 0.0 | 0.0 | 0.00 | 0.00 | 0.00 | 65 | 1007.4 |
| 20260505023853 | 20 | 190 | 1.6 | 1.6 | 0.00 | 0.00 | 0.00 | 65 | 1007.2 |
| 20260505023350 | 20 | 191 | 0.0 | 0.0 | 0.00 | 0.00 | 0.00 | 64 | 1007.4 |
| 20260505022847 | 20 | 198 | 1.6 | 3.2 | 0.00 | 0.00 | 0.00 | 63 | 1007.1 |
| 20260505022344 | 20 | 187 | 1.6 | 3.2 | 0.00 | 0.00 | 0.00 | 63 | 1007.0 |
| 20260505021842 | 21 | 197 | 1.6 | 1.6 | 0.00 | 0.00 | 0.00 | 63 | 1007.0 |
| 20260505021338 | 20 | 193 | 0.0 | 0.0 | 0.00 | 0.00 | 0.00 | 63 | 1006.9 |
| 20260505020834 | 20 | 193 | 0.0 | 0.0 | 0.00 | 0.00 | 0.00 | 64 | 1006.7 |
| 20260505020330 | 20 | 183 | 0.0 | 0.0 | 0.00 | 0.00 | 0.00 | 65 | 1006.7 |
| 20260505015827 | 20 | 188 | 0.0 | 1.6 | 0.00 | 0.00 | 0.00 | 64 | 1006.6 |
| 20260505015324 | 20 | 189 | 0.0 | 0.0 | 0.00 | 0.00 | 0.00 | 65 | 1006.6 |
| 20260505014821 | 20 | 183 | 0.0 | 0.0 | 0.00 | 0.00 | 0.00 | 63 | 1006.6 |
| 20260505014318 | 21 | 188 | 0.0 | 0.0 | 0.00 | 0.00 | 0.00 | 62 | 1006.5 |
| 20260505013814 | 21 | 188 | 0.0 | 0.0 | 0.00 | 0.00 | 0.00 | 62 | 1006.4 |
| 20260505013312 | 21 | 183 | 0.0 | 0.0 | 0.00 | 0.00 | 0.00 | 62 | 1006.2 |
| 20260505012810 | 21 | 176 | 0.0 | 0.0 | 0.00 | 0.00 | 0.00 | 62 | 1006.3 |
| 20260505012308 | 21 | 178 | 0.0 | 0.0 | 0.00 | 0.00 | 0.00 | 60 | 1006.3 |
| 20260505011803 | 21 | 173 | 0.0 | 0.0 | 0.00 | 0.00 | 0.00 | 59 | 1006.2 |
| 20260505011301 | 21 | 180 | 0.0 | 0.0 | 0.00 | 0.00 | 0.00 | 59 | 1006.2 |
| 20260505010756 | 22 | 184 | 0.0 | 0.0 | 0.00 | 0.00 | 0.00 | 59 | 1005.9 |
| 20260505010252 | 22 | 196 | 3.2 | 3.2 | 0.00 | 0.00 | 0.00 | 56 | 1006.1 |
| 20260505005749 | 22 | 177 | 0.0 | 1.6 | 0.00 | 0.00 | 0.00 | 57 | 1005.8 |
| 20260505005246 | 22 | 182 | 0.0 | 0.0 | 0.00 | 0.00 | 0.00 | 57 | 1006.0 |
| 20260505004743 | 22 | 211 | 1.6 | 1.6 | 0.00 | 0.00 | 0.00 | 55 | 1006.0 |
| 20260505004239 | 22 | 175 | 1.6 | 3.2 | 0.00 | 0.00 | 0.00 | 55 | 1005.7 |
| 20260505003736 | 22 | 190 | 1.6 | 1.6 | 0.00 | 0.00 | 0.00 | 55 | 1005.9 |
| 20260505003234 | 22 | 201 | 1.6 | 3.2 | 0.00 | 0.00 | 0.00 | 54 | 1005.8 |
| 20260505002730 | 22 | 194 | 0.0 | 0.0 | 0.00 | 0.00 | 0.00 | 53 | 1005.8 |
| 20260505002228 | 23 | 188 | 0.0 | 0.0 | 0.00 | 0.00 | 0.00 | 53 | 1005.9 |
| 20260505001725 | 23 | 189 | 0.0 | 0.0 | 0.00 | 0.00 | 0.00 | 52 | 1005.4 |
| 20260505001223 | 23 | 185 | 0.0 | 0.0 | 0.00 | 0.00 | 0.00 | 52 | 1005.7 |
| 20260505000720 | 23 | 192 | 3.2 | 3.2 | 0.00 | 0.00 | 0.00 | 52 | 1005.7 |
| 20260505000218 | 23 | 179 | 0.0 | 0.0 | 0.00 | 0.00 | 0.00 | 50 | 1006.0 |
| 20260504235714 | 23 | 191 | 1.6 | 3.2 | 0.00 | 0.00 | 0.00 | 50 | 1005.7 |
| 20260504235210 | 24 | 192 | 0.0 | 0.0 | 0.00 | 0.00 | 0.00 | 50 | 1005.6 |
| 20260504234707 | 24 | 189 | 0.0 | 0.0 | 0.00 | 0.00 | 0.00 | 50 | 1005.6 |
| 20260504234204 | 24 | 200 | 3.2 | 4.8 | 0.00 | 0.00 | 0.00 | 48 | 1005.4 |
| 20260504233700 | 25 | 193 | 1.6 | 3.2 | 0.00 | 0.00 | 0.00 | 48 | 1005.6 |
| 20260504233156 | 25 | 202 | 1.6 | 3.2 | 0.00 | 0.00 | 0.00 | 49 | 1005.7 |
| 20260504232654 | 25 | 169 | 0.0 | 0.0 | 0.00 | 0.00 | 0.00 | 49 | 1005.6 |
| 20260504232151 | 25 | 183 | 1.6 | 3.2 | 0.00 | 0.00 | 0.00 | 48 | 1005.6 |
| 20260504231648 | 25 | 187 | 3.2 | 4.8 | 0.00 | 0.00 | 0.00 | 47 | 1005.4 |
| 20260504231144 | 25 | 164 | 3.2 | 4.8 | 0.00 | 0.00 | 0.00 | 47 | 1005.6 |
| 20260504230640 | 25 | 222 | 6.4 | 9.7 | 0.00 | 0.00 | 0.00 | 46 | 1005.8 |
| 20260504230139 | 25 | 200 | 0.0 | 1.6 | 0.00 | 0.00 | 0.00 | 46 | 1005.6 |
| 20260504225637 | 25 | 170 | 4.8 | 9.7 | 0.00 | 0.00 | 0.00 | 45 | 1005.6 |
| 20260504225132 | 25 | 213 | 3.2 | 4.8 | 0.00 | 0.00 | 0.00 | 45 | 1005.6 |
| 20260504224630 | 25 | 154 | 1.6 | 1.6 | 0.00 | 0.00 | 0.00 | 47 | 1005.8 |
| 20260504224126 | 26 | 187 | 1.6 | 3.2 | 0.00 | 0.00 | 0.00 | 46 | 1005.6 |
| 20260504223624 | 26 | 196 | 3.2 | 4.8 | 0.00 | 0.00 | 0.00 | 47 | 1005.8 |
| 20260504223119 | 26 | 189 | 3.2 | 3.2 | 0.00 | 0.00 | 0.00 | 46 | 1005.7 |
| 20260504222616 | 26 | 236 | 8.0 | 12.9 | 0.00 | 0.00 | 0.00 | 46 | 1005.6 |
| 20260504222114 | 26 | 201 | 1.6 | 3.2 | 0.00 | 0.00 | 0.00 | 47 | 1005.6 |
| 20260504221611 | 26 | 166 | 3.2 | 4.8 | 0.00 | 0.00 | 0.00 | 47 | 1005.4 |
| 20260504221108 | 26 | 159 | 4.8 | 6.4 | 0.00 | 0.00 | 0.00 | 48 | 1005.7 |
| 20260504220604 | 26 | 208 | 3.2 | 3.2 | 0.00 | 0.00 | 0.00 | 45 | 1005.8 |
| 20260504215557 | 26 | 230 | 3.2 | 3.2 | 0.00 | 0.00 | 0.00 | 47 | 1005.8 |
| 20260504215055 | 26 | 339 | 3.2 | 3.2 | 0.00 | 0.00 | 0.00 | 49 | 1005.8 |
| 20260504214551 | 26 | 158 | 3.2 | 3.2 | 0.00 | 0.00 | 0.00 | 47 | 1005.9 |
| 20260504214047 | 26 | 214 | 3.2 | 4.8 | 0.00 | 0.00 | 0.00 | 46 | 1005.8 |
| 20260504213544 | 26 | 181 | 3.2 | 4.8 | 0.00 | 0.00 | 0.00 | 48 | 1005.7 |
| 20260504213041 | 26 | 214 | 6.4 | 9.7 | 0.00 | 0.00 | 0.00 | 45 | 1005.9 |
| 20260504212537 | 26 | 196 | 3.2 | 4.8 | 0.00 | 0.00 | 0.00 | 46 | 1006.0 |
| 20260504212034 | 26 | 173 | 0.0 | 0.0 | 0.00 | 0.00 | 0.00 | 46 | 1006.0 |
| 20260504211531 | 26 | 291 | 6.4 | 9.7 | 0.00 | 0.00 | 0.00 | 46 | 1006.2 |
| 20260504211028 | 26 | 241 | 6.4 | 9.7 | 0.00 | 0.00 | 0.00 | 45 | 1006.1 |
| 20260504210525 | 26 | 206 | 3.2 | 4.8 | 0.00 | 0.00 | 0.00 | 46 | 1006.3 |
| 20260504210022 | 26 | 193 | 4.8 | 6.4 | 0.00 | 0.00 | 0.00 | 45 | 1006.3 |
| 20260504205520 | 27 | 210 | 4.8 | 6.4 | 0.00 | 0.00 | 0.00 | 44 | 1006.4 |
| 20260504205018 | 26 | 229 | 1.6 | 1.6 | 0.00 | 0.00 | 0.00 | 47 | 1006.4 |
| 20260504204515 | 27 | 320 | 3.2 | 3.2 | 0.00 | 0.00 | 0.00 | 46 | 1006.4 |
| 20260504204014 | 27 | 199 | 1.6 | 3.2 | 0.00 | 0.00 | 0.00 | 45 | 1006.4 |
| 20260504203512 | 27 | 224 | 0.0 | 1.6 | 0.00 | 0.00 | 0.00 | 46 | 1006.6 |
| 20260504203009 | 27 | 202 | 0.0 | 1.6 | 0.00 | 0.00 | 0.00 | 45 | 1006.6 |
| 20260504202504 | 27 | 256 | 8.0 | 12.9 | 0.00 | 0.00 | 0.00 | 44 | 1006.6 |
| 20260504202001 | 26 | 254 | 1.6 | 3.2 | 0.00 | 0.00 | 0.00 | 45 | 1006.6 |
| 20260504201458 | 27 | 268 | 3.2 | 4.8 | 0.00 | 0.00 | 0.00 | 44 | 1007.0 |
| 20260504200956 | 26 | 190 | 1.6 | 3.2 | 0.00 | 0.00 | 0.00 | 46 | 1006.8 |
| 20260504200452 | 26 | 181 | 4.8 | 9.7 | 0.00 | 0.00 | 0.00 | 45 | 1007.1 |
| 20260504195949 | 26 | 260 | 3.2 | 6.4 | 0.00 | 0.00 | 0.00 | 43 | 1007.0 |
| 20260504195445 | 27 | 192 | 9.7 | 12.9 | 0.00 | 0.00 | 0.00 | 46 | 1006.9 |
| 20260504194942 | 26 | 167 | 6.4 | 6.4 | 0.00 | 0.00 | 0.00 | 47 | 1007.1 |
| 20260504194438 | 27 | 217 | 1.6 | 1.6 | 0.00 | 0.00 | 0.00 | 47 | 1007.3 |
| 20260504193934 | 27 | 200 | 1.6 | 3.2 | 0.00 | 0.00 | 0.00 | 49 | 1007.2 |
| 20260504193431 | 26 | 228 | 3.2 | 3.2 | 0.00 | 0.00 | 0.00 | 46 | 1007.2 |
| 20260504192930 | 26 | 272 | 1.6 | 3.2 | 0.00 | 0.00 | 0.00 | 45 | 1007.2 |
| 20260504192427 | 26 | 186 | 0.0 | 0.0 | 0.00 | 0.00 | 0.00 | 48 | 1007.0 |
| 20260504191926 | 27 | 186 | 11.3 | 17.7 | 0.00 | 0.00 | 0.00 | 45 | 1007.3 |
| 20260504191424 | 26 | 279 | 6.4 | 11.3 | 0.00 | 0.00 | 0.00 | 47 | 1007.2 |
| 20260504190918 | 26 | 194 | 1.6 | 4.8 | 0.00 | 0.00 | 0.00 | 47 | 1007.3 |
| 20260504190414 | 26 | 149 | 4.8 | 4.8 | 0.00 | 0.00 | 0.00 | 45 | 1007.2 |
| 20260504185911 | 26 | 244 | 4.8 | 4.8 | 0.00 | 0.00 | 0.00 | 48 | 1007.2 |
| 20260504185409 | 26 | 8 | 4.8 | 11.3 | 0.00 | 0.00 | 0.00 | 45 | 1007.2 |
| 20260504184904 | 26 | 256 | 3.2 | 3.2 | 0.00 | 0.00 | 0.00 | 46 | 1007.4 |
| 20260504184400 | 26 | 221 | 6.4 | 11.3 | 0.00 | 0.00 | 0.00 | 46 | 1007.3 |
| 20260504183856 | 26 | 201 | 6.4 | 12.9 | 0.00 | 0.00 | 0.00 | 47 | 1007.2 |
| 20260504183354 | 26 | 266 | 3.2 | 4.8 | 0.00 | 0.00 | 0.00 | 45 | 1007.3 |
| 20260504182851 | 26 | 173 | 4.8 | 6.4 | 0.00 | 0.00 | 0.00 | 47 | 1007.4 |
| 20260504182348 | 26 | 160 | 3.2 | 3.2 | 0.00 | 0.00 | 0.00 | 47 | 1007.3 |
| 20260504181845 | 26 | 214 | 3.2 | 4.8 | 0.00 | 0.00 | 0.00 | 49 | 1007.3 |
| 20260504181343 | 25 | 219 | 4.8 | 9.7 | 0.00 | 0.00 | 0.00 | 47 | 1007.4 |
| 20260504180841 | 26 | 242 | 6.4 | 11.3 | 0.00 | 0.00 | 0.00 | 47 | 1007.2 |
| 20260504180339 | 26 | 208 | 8.0 | 9.7 | 0.00 | 0.00 | 0.00 | 45 | 1007.3 |
| 20260504175837 | 26 | 86 | 3.2 | 4.8 | 0.00 | 0.00 | 0.00 | 47 | 1007.5 |
| 20260504175333 | 25 | 221 | 1.6 | 1.6 | 0.00 | 0.00 | 0.00 | 46 | 1007.5 |
| 20260504174832 | 25 | 284 | 3.2 | 4.8 | 0.00 | 0.00 | 0.00 | 49 | 1007.7 |
| 20260504174329 | 25 | 257 | 3.2 | 3.2 | 0.00 | 0.00 | 0.00 | 48 | 1007.5 |
| 20260504173826 | 25 | 190 | 3.2 | 6.4 | 0.00 | 0.00 | 0.00 | 47 | 1007.6 |
| 20260504173323 | 25 | 248 | 3.2 | 4.8 | 0.00 | 0.00 | 0.00 | 48 | 1007.8 |
| 20260504172820 | 25 | 108 | 3.2 | 4.8 | 0.00 | 0.00 | 0.00 | 47 | 1007.9 |
| 20260504172316 | 25 | 326 | 3.2 | 6.4 | 0.00 | 0.00 | 0.00 | 46 | 1007.8 |